Theta_e
304 305 304 304 304 304 304 303 303 302 303 304 304 304 304 302 302 304 303 304 303 304 304 304 304 302 303 304 304 305 304 302 302 303 307 309 315 318 318 320 320 313 314 315 315 314 316
304 304 304 304 304 303 302 302 302 302 303 302 303 304 302 301 301 303 301 303 302 304 304 303 302 303 303 306 304 304 304 304 302 305 308 308 315 317 317 321 321 315 315 314 315 315 315
306 304 304 303 303 302 303 302 302 302 303 303 302 302 301 301 300 302 298 299 300 303 301 300 301 302 305 305 304 303 304 303 302 305 308 308 315 318 318 320 317 313 314 312 313 313 314
306 304 302 302 302 301 301 301 302 302 302 302 301 299 297 297 297 299 298 297 301 302 303 303 304 305 305 305 304 303 302 303 304 305 308 310 315 318 319 320 312 311 312 314 311 313 315
304 302 302 302 302 301 301 301 301 302 302 301 300 295 295 295 297 299 298 299 301 302 304 303 304 304 304 304 303 303 303 304 303 305 308 312 314 318 315 319 312 310 313 311 311 312 316
302 302 301 301 301 301 302 301 301 301 302 301 296 295 295 295 299 299 299 301 301 302 302 302 302 303 302 302 303 304 304 304 304 306 308 310 316 313 315 318 315 310 310 310 310 312 315
301 300 299 299 299 300 300 300 301 300 300 296 294 295 295 297 300 299 298 300 302 301 302 302 302 302 301 302 304 304 304 304 304 310 311 316 318 317 315 315 312 310 309 310 310 312 315
301 300 297 296 297 296 297 299 300 298 294 294 295 295 297 297 299 299 298 298 298 300 300 301 302 303 301 302 303 305 303 303 306 312 316 317 318 313 313 308 310 310 308 311 312 314 313
299 298 297 296 295 295 295 295 295 294 294 295 294 296 298 298 298 298 298 297 299 300 300 299 300 302 301 303 305 305 303 302 306 313 317 316 314 309 310 307 309 308 309 310 313 312 312
299 299 298 297 296 295 295 295 295 295 294 295 295 295 298 299 299 299 297 298 299 300 294 298 300 301 301 304 305 305 303 303 306 317 314 311 310 309 309 309 309 309 308 312 314 313 312
300 299 299 298 298 296 296 296 296 295 295 295 296 296 299 299 299 299 299 299 299 301 293 297 299 299 301 304 306 305 306 308 313 314 312 314 310 310 310 309 307 308 310 312 313 310 311
301 301 300 300 300 298 296 296 296 296 295 295 296 297 299 300 300 300 301 301 300 292 295 295 298 299 301 303 306 306 306 309 310 313 311 311 312 310 311 310 309 309 310 310 311 310 314
301 301 301 301 301 301 298 296 297 296 296 296 296 297 298 299 299 300 300 300 292 296 298 295 298 299 301 302 305 305 306 305 306 314 314 313 314 310 310 310 309 310 312 314 315 314 312
300 301 301 301 302 302 300 297 297 297 296 296 296 296 297 299 298 298 297 292 294 297 297 298 298 299 299 300 304 304 305 304 303 311 313 315 314 312 311 309 310 310 308 312 309 309 308
298 299 300 300 301 302 301 299 298 297 297 296 297 296 297 297 298 298 297 295 296 297 297 297 296 296 296 298 298 301 303 302 302 303 314 314 315 313 310 310 310 311 308 306 306 306 307
298 299 300 300 300 301 302 300 299 298 298 297 297 295 296 296 298 297 295 296 296 295 296 296 294 294 292 295 296 294 300 301 301 302 303 311 313 314 310 311 310 310 308 309 308 308 308
299 300 300 300 300 301 301 301 301 299 298 298 296 294 295 296 297 295 290 294 295 295 295 295 295 292 291 295 289 291 297 301 302 302 303 307 311 314 310 310 310 310 310 310 310 309 311
300 301 300 300 300 300 300 301 302 301 298 298 296 292 293 295 292 289 289 294 294 294 293 294 294 295 294 295 294 293 298 300 300 300 306 305 310 312 311 310 310 309 309 308 308 310 309
300 301 300 300 301 301 300 300 301 301 298 297 295 294 293 294 288 285 292 293 293 293 292 292 291 292 294 295 295 296 297 298 299 299 304 304 311 312 313 311 310 312 310 308 307 308 310
300 300 300 299 300 301 300 300 300 300 299 297 294 289 293 293 292 288 290 291 292 292 292 291 290 292 294 294 294 295 295 296 296 297 301 305 312 312 311 312 309 312 311 309 309 309 309
299 300 300 300 300 300 300 300 300 300 299 297 294 287 289 287 289 281 285 282 286 288 291 291 290 290 293 290 293 294 293 294 297 295 297 301 310 310 311 310 311 310 311 309 309 309 310
298 299 299 299 300 300 300 300 300 300 300 297 295 295 294 293 290 283 285 282 286 287 288 288 287 289 288 284 287 287 290 293 294 294 294 296 306 307 311 310 308 306 303 310 308 305 306
296 299 299 299 300 300 299 299 300 300 299 296 294 296 295 291 284 282 282 286 288 291 290 292 291 285 288 289 288 289 290 291 292 294 294 290 299 302 308 310 308 309 298 297 297 292 296
295 297 298 298 299 299 299 299 299 299 298 298 294 293 294 285 286 283 286 290 291 292 285 292 290 286 289 290 294 295 294 295 295 294 295 293 292 303 301 308 314 298 292 292 293 290 290
295 295 297 297 299 299 299 298 298 298 299 298 296 293 292 284 289 290 289 289 290 289 290 292 291 289 291 293 290 290 290 291 292 298 296 296 295 296 302 305 298 297 294 294 296 295 287
295 294 295 297 298 299 298 298 298 297 298 298 298 295 292 293 288 291 291 290 282 279 281 290 291 288 293 294 287 288 290 289 292 293 294 297 297 294 300 304 304 295 290 289 291 303 286
295 294 294 295 296 298 299 298 297 298 297 297 297 297 293 289 293 291 289 286 289 286 280 286 287 287 290 281 281 286 290 287 291 291 290 289 291 296 292 298 295 289 288 290 303 299 284
297 294 293 294 296 296 299 299 298 298 297 296 296 296 295 290 290 291 291 291 291 289 279 287 284 284 283 282 283 284 285 285 286 281 285 287 289 292 293 296 300 288 288 296 288 283 283
296 295 293 293 293 295 297 298 299 298 297 296 296 295 294 290 291 291 290 290 291 290 287 287 285 286 288 282 278 280 287 278 280 287 280 286 285 288 292 295 287 288 287 287 285 283 282
Wind_Speed
24 24 25 25 25 25 24 24 22 21 21 21 22 22 22 23 24 25 25 22 19 17 12 9 5 6 3 2 2 4 3 7 12 20 21 25 20 30 21 17 20 5 9 7 4 3 8
25 25 27 26 26 24 24 23 23 23 23 22 22 23 22 24 24 24 24 21 15 15 9 7 2 3 4 2 1 4 8 15 12 13 23 28 21 30 33 20 18 10 18 5 7 7 4
24 26 26 25 25 25 25 25 25 24 24 23 22 22 22 24 25 23 22 14 6 9 9 5 4 4 5 4 6 11 13 15 10 18 31 30 26 27 27 14 15 12 13 4 2 5 3
26 26 26 26 26 26 27 27 27 26 25 24 23 21 22 24 26 21 18 5 4 7 7 8 3 1 3 5 10 12 13 12 7 9 26 28 19 32 20 20 7 7 8 8 4 4 1
25 26 26 27 27 28 28 28 28 27 26 25 24 19 20 23 22 20 13 3 6 5 4 8 5 2 2 8 15 11 14 9 7 9 18 22 20 14 16 21 6 1 13 6 6 7 3
27 28 28 28 29 29 29 30 30 29 28 25 20 18 21 23 16 17 4 10 19 12 4 3 11 2 4 14 18 9 12 9 3 15 16 11 13 6 10 18 16 10 9 4 8 6 3
28 30 31 32 31 31 31 31 31 29 28 22 18 19 22 19 12 15 12 7 1 5 13 6 3 3 16 18 10 7 13 4 5 16 8 15 14 13 23 20 19 11 6 11 4 5 6
29 31 34 34 34 35 35 34 31 29 26 20 19 22 20 18 10 13 14 8 7 3 4 4 7 8 25 14 5 9 6 2 3 17 17 11 13 14 18 11 16 12 12 5 5 4 6
33 34 36 37 36 37 39 38 31 30 24 19 19 25 21 14 6 14 13 8 4 2 1 11 13 7 23 16 4 12 9 3 5 7 19 15 12 9 17 11 16 5 15 7 10 4 5
33 36 38 39 38 38 40 40 31 30 24 18 21 26 22 22 3 15 10 6 3 3 4 14 15 9 18 17 2 11 11 3 4 18 19 10 2 18 18 7 16 9 8 9 13 7 6
35 36 39 40 41 39 39 41 32 30 25 16 22 27 26 24 17 16 12 4 4 2 6 20 10 16 26 7 9 25 12 13 12 13 13 1 14 12 11 4 7 7 9 9 6 5 5
36 38 39 42 43 42 40 41 32 28 23 17 23 25 26 25 27 16 6 7 4 7 4 10 11 15 17 11 12 14 9 15 10 11 13 7 5 5 3 4 5 7 10 8 5 4 1
35 37 39 42 44 45 41 40 34 25 24 18 26 27 26 27 32 18 9 4 7 6 7 11 10 14 14 11 13 10 16 17 7 10 9 8 6 4 5 6 6 9 16 3 2 1 5
34 37 39 42 45 46 44 40 36 25 24 15 14 29 25 24 22 17 10 6 13 5 4 5 7 12 10 13 12 20 11 12 17 9 9 4 2 2 2 3 6 6 7 8 10 6 4
34 36 39 41 44 46 46 42 38 26 20 16 12 30 29 27 26 12 5 13 5 4 6 7 6 7 9 7 6 8 10 6 6 9 3 4 1 4 2 4 2 2 2 6 8 1 4
33 35 38 40 42 44 45 44 41 30 15 20 9 10 30 24 17 11 10 9 4 8 6 2 5 4 7 9 8 5 10 7 10 5 6 1 4 1 2 3 1 3 3 3 3 6 4
30 35 39 41 41 41 43 44 43 36 16 20 14 7 27 9 17 20 5 5 4 16 16 7 3 3 2 3 2 4 5 1 6 8 8 5 3 4 5 5 5 0 1 4 5 4 5
28 34 37 39 41 41 42 44 43 40 25 9 16 5 34 13 9 6 4 4 9 11 21 7 5 5 3 5 7 5 3 4 13 7 4 4 2 4 11 3 4 1 4 4 4 4 2
26 31 34 36 41 43 41 41 43 41 28 13 6 5 25 18 5 4 4 4 7 10 9 7 8 7 4 6 5 4 3 6 9 10 4 5 2 4 4 7 1 4 4 3 3 3 4
22 26 31 35 39 42 43 42 40 40 30 15 5 4 11 22 11 5 2 5 4 8 4 6 6 7 5 6 4 4 6 4 12 12 7 5 2 3 6 2 3 4 3 3 4 2 3
18 22 27 31 35 39 42 43 41 39 36 12 9 2 3 4 7 5 3 1 4 6 9 15 5 10 4 6 6 6 7 6 3 15 6 3 2 2 1 5 3 4 5 6 6 4 4
14 18 23 27 32 35 38 42 41 38 35 38 7 4 4 3 2 4 6 2 2 4 3 5 4 6 5 4 2 4 8 6 4 8 6 6 2 3 3 5 3 3 3 4 3 3 5
10 14 17 21 27 30 34 39 42 39 36 23 15 8 2 7 3 4 2 2 3 3 2 0 2 2 4 2 8 13 11 12 7 5 4 4 2 2 3 3 1 2 2 3 3 4 2
10 10 14 16 22 25 30 34 38 39 35 29 22 9 3 2 3 2 2 2 2 3 4 3 3 3 2 13 6 4 7 9 7 6 6 3 2 0 2 1 3 2 3 3 5 3 3
10 9 10 13 17 21 24 28 33 35 33 29 24 15 5 0 1 1 3 2 2 4 2 2 2 6 11 6 3 4 4 5 4 1 3 5 0 1 2 0 4 2 4 5 4 4 2
11 9 8 9 11 16 19 22 26 29 31 28 25 21 7 2 3 1 1 1 2 1 5 2 3 3 4 3 4 2 1 4 5 7 2 3 2 2 0 4 6 1 3 4 2 4 8
13 12 9 8 8 11 15 18 20 23 26 28 23 19 9 1 2 2 2 2 2 2 2 4 6 4 5 2 3 2 2 2 2 2 3 3 2 3 2 2 6 3 8 8 4 1 8
17 15 12 10 9 9 11 15 18 21 24 26 24 20 12 3 4 3 4 3 2 3 3 0 2 3 4 4 3 2 2 2 2 3 3 3 3 3 2 0 6 8 5 5 5 9 9
21 19 16 14 12 11 11 13 17 20 22 25 25 24 15 3 3 6 7 7 6 5 1 1 3 2 2 3 1 2 1 1 3 3 3 3 5 3 6 3 2 12 3 6 12 12 8
Wind_Direction
5 3 3 355 358 353 350 343 343 337 335 335 335 333 333 332 332 330 327 322 324 328 327 321 309 351 47 194 256 195 283 311 298 253 218 218 215 178 184 186 184 139 194 221 206 178 177
6 3 1 2 353 353 349 344 340 340 337 335 333 332 331 334 335 329 330 328 327 334 344 317 243 234 210 274 348 314 314 317 310 203 204 220 198 181 185 174 179 171 173 112 196 271 178
3 4 2 359 356 351 349 346 343 342 337 333 330 329 330 334 337 331 335 336 354 18 32 67 138 183 251 287 16 333 316 316 287 193 194 212 192 196 174 145 163 142 163 76 251 231 187
7 4 1 359 356 354 351 347 344 342 338 333 330 330 331 334 339 340 341 335 47 57 69 73 89 272 289 311 335 328 330 331 283 192 194 209 185 198 163 142 125 109 146 163 224 193 293
6 3 2 359 357 353 350 347 345 342 339 334 331 338 334 336 342 346 351 73 48 85 102 54 31 12 2 323 321 318 315 304 284 197 176 195 164 182 149 147 122 144 171 166 146 198 124
8 5 4 2 360 355 351 348 346 344 341 335 341 350 342 342 350 354 60 115 75 69 83 26 19 310 334 318 326 300 316 301 134 149 145 188 176 154 145 157 168 172 152 135 138 193 52
11 8 7 6 3 358 354 351 349 348 345 347 0 359 348 351 353 358 23 204 170 58 61 53 349 42 330 327 318 297 327 281 124 149 160 154 161 163 156 170 169 139 105 155 100 184 113
12 11 10 9 7 5 1 356 353 356 1 6 10 2 358 350 357 0 21 79 70 67 342 13 331 287 339 339 284 320 339 165 123 148 151 130 164 162 152 127 139 133 126 108 63 148 94
18 16 14 13 10 8 6 3 2 3 4 9 12 7 10 359 4 6 29 53 120 98 21 347 357 322 334 327 290 337 25 77 82 140 144 136 151 158 144 121 138 139 154 152 143 112 53
22 21 18 15 12 11 9 5 4 5 5 7 11 8 16 23 5 15 24 41 96 138 71 352 346 359 336 329 273 359 13 119 162 164 148 96 92 143 136 102 148 144 164 122 135 128 176
27 24 21 16 15 14 11 7 6 7 9 13 16 13 17 17 10 21 3 29 106 148 51 321 323 323 337 356 336 9 15 50 88 128 130 161 124 126 105 130 130 182 144 131 132 101 107
30 26 23 18 17 16 13 9 8 7 12 16 14 17 15 14 9 11 29 59 104 42 11 327 328 336 344 5 7 17 67 73 62 75 81 56 105 79 118 90 66 124 96 60 64 87 129
29 26 23 20 18 17 16 12 8 7 11 22 25 27 21 20 3 11 56 103 54 51 329 324 332 333 344 352 23 28 49 47 48 102 104 31 18 26 88 75 31 117 140 106 62 27 195
27 26 23 20 18 16 16 16 10 8 8 11 18 30 35 34 19 35 64 56 63 351 328 313 321 325 17 359 13 28 41 29 13 66 96 111 94 41 297 137 161 128 147 156 165 173 195
26 25 23 21 18 15 15 16 14 10 12 10 15 33 37 34 41 37 81 53 46 348 311 315 326 24 344 351 30 31 45 32 42 14 65 112 279 331 28 41 98 218 114 162 101 7 95
28 25 21 19 17 16 15 15 16 13 16 16 16 36 28 39 37 42 53 92 81 21 318 30 63 34 12 335 24 37 25 348 348 22 329 8 97 294 257 50 35 110 189 100 31 140 178
28 26 22 21 21 20 18 16 14 17 20 29 36 52 10 26 49 54 69 53 28 4 20 43 13 41 333 356 79 48 358 151 -0 324 330 359 87 258 120 203 147 180 187 63 116 127 153
27 24 23 23 24 22 21 19 17 12 20 40 45 50 9 40 59 36 42 11 7 344 13 18 36 15 24 346 18 66 60 3 356 325 24 2 85 109 210 65 8 290 184 130 118 205 165
26 26 23 23 21 21 21 20 19 17 15 28 59 45 25 58 72 7 31 41 45 10 1 13 7 0 351 5 70 63 47 340 9 19 20 334 346 99 65 315 301 230 205 159 139 85 191
25 24 22 20 21 20 24 23 21 22 19 34 60 30 27 49 60 90 62 14 19 10 33 16 16 1 350 23 22 38 359 334 342 4 347 307 17 53 184 227 111 188 162 145 141 120 162
23 22 21 20 20 22 27 27 24 26 33 46 47 48 41 345 11 51 70 5 356 11 3 15 31 22 340 9 353 19 1 344 8 359 2 38 54 351 352 296 280 225 167 182 195 182 165
19 18 21 18 18 21 26 28 27 27 32 47 65 57 62 54 341 48 7 336 353 316 53 341 47 330 41 80 140 310 359 7 355 326 14 345 94 356 305 343 308 131 343 178 160 75 77
6 13 17 18 17 20 27 30 27 25 28 41 44 51 62 358 24 76 265 260 275 338 297 143 323 68 16 110 295 276 257 264 263 316 327 36 27 3 229 335 15 348 292 335 80 51 34
349 2 8 12 17 18 24 30 30 27 28 32 34 34 38 286 72 202 196 221 295 322 203 310 28 94 336 319 293 250 245 252 248 249 213 339 346 286 240 7 187 147 122 31 112 84 78
329 343 352 359 9 16 18 29 31 30 27 25 26 30 23 113 222 226 277 244 335 326 347 286 318 324 328 346 26 7 343 13 321 320 180 201 248 347 139 183 293 179 190 169 194 198 216
308 321 329 341 350 4 10 22 27 28 26 21 22 17 18 107 274 280 191 -0 159 2 343 258 285 335 6 66 61 111 233 226 301 332 28 142 104 121 202 151 219 173 169 123 56 266 165
289 299 306 313 321 343 356 4 17 16 21 16 14 10 9 329 209 274 262 200 148 125 184 301 336 1 11 65 82 124 265 198 279 280 297 332 8 158 283 232 280 226 149 144 143 230 149
275 285 290 290 293 304 333 346 1 1 7 13 5 359 357 276 254 249 258 241 208 212 136 99 25 320 28 69 117 209 146 257 22 235 190 198 143 207 109 240 275 145 111 195 128 122 147
265 272 278 281 279 283 297 323 344 349 354 3 360 350 341 263 227 261 248 249 257 245 226 94 135 169 150 88 37 109 210 37 161 275 343 292 188 211 195 218 165 183 161 161 159 152 170